Olivia, MN

12:02 PM CST on November 20, 2017 (GMT -0600)
Olivia Regional

Weather History for KOVL - January, 2013

Change the Weather History Date:

Monday, January 21, 2013

  Actual Average (KRWF) Record (KRWF)
Temperature  
Mean Temperature -4 °F -  
Max Temperature 1 °F 27 °F 55 °F (1944)
Min Temperature -9 °F 8 °F -31 °F (1970)
Degree Days  
Heating Degree Days 69    
Moisture  
Dew Point -14 °F    
Average Humidity 68    
Maximum Humidity 78    
Minimum Humidity 60    
Precipitation  
Precipitation 0.00 in - - ()
Sea Level Pressure  
Sea Level Pressure 30.32 in    
Wind  
Wind Speed 13 mph (WNW)    
Max Wind Speed 24 mph    
Max Gust Speed 33 mph    
Visibility 10 miles    
Events Snow    
Averages and records for this station are not official NWS values.
T = Trace of Precipitation, MM = Missing Value Source: NWS Daily Summary

Daily Weather History Graph

Daily Weather History Graph

Search for Another Location

Airport or City:

Trip Planner

Search our weather history database for the weather conditions in past years. The results will help you decide how hot, cold, wet, or windy it might be!

Date:

Astronomy

Jan. 21, 2013 Rise Set
Actual Time 7:49 AM CST 5:13 PM CST
Civil Twilight 7:17 AM CST 5:45 PM CST
Nautical Twilight 6:42 AM CST 6:21 PM CST
Astronomical Twilight 6:07 AM CST 6:56 PM CST
Moon 12:53 PM CST (1/21) 3:19 AM CST (1/21)
Length of Visible Light 10h 28m
Length of Day
9h 23m
Waxing Gibbous, 75% of the Moon is Illuminated
Jan 21
Waxing Gibbous
Jan 26
Full
Feb 3
Last Quarter
Feb 10
New
Feb 17
First Quarter

Hourly Weather History & Observations

Time (CST) Temp. Windchill Dew Point Humidity Pressure Visibility Wind Dir Wind Speed Gust Speed Precip Events Conditions
12:11 AM -2.2 °F -26.7 °F -9.4 °F 71% 30.31 in 10.0 mi NW 24.2 mph 33.4 mph N/A   Clear
12:31 AM -4.0 °F -29.1 °F -9.4 °F 78% 30.31 in 1.0 mi NW 24.2 mph 32.2 mph N/A Snow Light Snow
12:50 AM -4.0 °F -28.1 °F -13.0 °F 65% 30.32 in 10.0 mi NW 21.9 mph 29.9 mph N/A   Scattered Clouds
1:11 AM -7.6 °F -32.9 °F -16.6 °F 65% 30.33 in 10.0 mi NW 21.9 mph 29.9 mph N/A   Clear
1:31 AM -7.6 °F -31.7 °F -16.6 °F 65% 30.34 in 10.0 mi NW 19.6 mph 28.8 mph N/A   Clear
1:51 AM -7.6 °F -30.5 °F -14.8 °F 71% 30.34 in 10.0 mi NW 17.3 mph 24.2 mph N/A   Clear
2:11 AM -7.6 °F -29.8 °F -16.6 °F 65% 30.35 in 10.0 mi NW 16.1 mph 26.5 mph N/A   Clear
2:31 AM -7.6 °F -28.3 °F -16.6 °F 65% 30.36 in 10.0 mi WNW 13.8 mph 20.7 mph N/A   Clear
2:50 AM -7.6 °F -28.3 °F -16.6 °F 65% 30.35 in 10.0 mi WNW 13.8 mph 21.9 mph N/A   Clear
3:11 AM -7.6 °F -27.5 °F -16.6 °F 65% 30.35 in 10.0 mi WNW 12.7 mph 18.4 mph N/A   Clear
3:31 AM -9.4 °F -29.8 °F -16.6 °F 71% 30.35 in 10.0 mi WNW 12.7 mph 17.3 mph N/A   Clear
3:50 AM -9.4 °F -22.7 °F -16.6 °F 71% 30.34 in 10.0 mi WNW 5.8 mph 18.4 mph N/A   Clear
4:11 AM -9.4 °F -26.8 °F -16.6 °F 71% 30.34 in 10.0 mi WNW 9.2 mph 17.3 mph N/A   Clear
4:51 AM -9.4 °F -28.9 °F -16.6 °F 71% 30.34 in 10.0 mi WNW 11.5 mph 16.1 mph N/A   Clear
5:10 AM -9.4 °F -28.9 °F -16.6 °F 71% 30.34 in 10.0 mi WNW 11.5 mph 17.3 mph N/A   Clear
5:31 AM -9.4 °F -24.3 °F -16.6 °F 71% 30.34 in 10.0 mi WNW 6.9 mph 18.4 mph N/A   Clear
5:51 AM -9.4 °F -27.9 °F -16.6 °F 71% 30.34 in 10.0 mi NW 10.4 mph - N/A   Clear
6:11 AM -9.4 °F - -18.4 °F 65% 30.34 in 10.0 mi Calm Calm - N/A   Clear
6:31 AM -9.4 °F - -18.4 °F 65% 30.33 in 10.0 mi Calm Calm - N/A   Clear
6:51 AM -9.4 °F - -18.4 °F 65% 30.33 in 10.0 mi Calm Calm - N/A   Clear
7:11 AM -9.4 °F - -18.4 °F 65% 30.33 in 10.0 mi Calm Calm - N/A   Clear
7:31 AM -9.4 °F - -16.6 °F 71% 30.33 in 10.0 mi Calm Calm - N/A   Clear
7:51 AM -9.4 °F - -16.6 °F 71% 30.33 in 10.0 mi Calm Calm - N/A   Clear
8:10 AM -9.4 °F -26.8 °F -16.6 °F 71% 30.33 in 10.0 mi WNW 9.2 mph - N/A   Clear
8:31 AM -9.4 °F - -18.4 °F 65% 30.33 in 10.0 mi Calm Calm - N/A   Clear
8:50 AM -9.4 °F - -16.6 °F 71% 30.34 in 10.0 mi Calm Calm - N/A   Clear
9:11 AM -7.6 °F -24.6 °F -16.6 °F 65% 30.35 in 10.0 mi NW 9.2 mph - N/A   Clear
9:31 AM -7.6 °F -25.7 °F -16.6 °F 65% 30.36 in 10.0 mi NW 10.4 mph 16.1 mph N/A   Clear
9:51 AM -7.6 °F -28.3 °F -16.6 °F 65% 30.36 in 10.0 mi WNW 13.8 mph 17.3 mph N/A   Clear
10:11 AM -7.6 °F -29.1 °F -16.6 °F 65% 30.36 in 10.0 mi NW 15.0 mph - N/A   Clear
10:31 AM -7.6 °F -29.8 °F -16.6 °F 65% 30.36 in 10.0 mi NW 16.1 mph 21.9 mph N/A   Clear
10:51 AM -4.0 °F -25.2 °F -14.8 °F 60% 30.36 in 10.0 mi NW 16.1 mph 25.3 mph N/A   Clear
11:11 AM -4.0 °F -27.0 °F -14.8 °F 60% 30.36 in 10.0 mi NW 19.6 mph - N/A   Clear
11:31 AM -4.0 °F -25.2 °F -14.8 °F 60% 30.35 in 10.0 mi NW 16.1 mph 21.9 mph N/A   Clear
11:51 AM -4.0 °F -25.2 °F -14.8 °F 60% 30.34 in 10.0 mi NW 16.1 mph 23.0 mph N/A   Clear
12:11 PM -4.0 °F -24.5 °F -14.8 °F 60% 30.33 in 10.0 mi NW 15.0 mph 25.3 mph N/A   Clear
12:31 PM -4.0 °F -25.2 °F -13.0 °F 65% 30.32 in 10.0 mi NW 16.1 mph 21.9 mph N/A   Clear
12:51 PM -4.0 °F -24.5 °F -13.0 °F 65% 30.32 in 10.0 mi WNW 15.0 mph 20.7 mph N/A   Clear
1:11 PM -4.0 °F -25.8 °F -13.0 °F 65% 30.31 in 10.0 mi WNW 17.3 mph 21.9 mph N/A   Clear
1:31 PM -2.2 °F -21.5 °F -11.2 °F 66% 30.30 in 10.0 mi WNW 13.8 mph - N/A   Clear
1:51 PM -2.2 °F -21.5 °F -11.2 °F 66% 30.29 in 10.0 mi WNW 13.8 mph 20.7 mph N/A   Clear
2:10 PM -2.2 °F -20.7 °F -11.2 °F 66% 30.29 in 10.0 mi WNW 12.7 mph - N/A   Clear
2:31 PM -2.2 °F -23.5 °F -11.2 °F 66% 30.29 in 10.0 mi WNW 17.3 mph - N/A   Clear
2:51 PM -0.4 °F -18.4 °F -11.2 °F 60% 30.29 in 10.0 mi WNW 12.7 mph 20.7 mph N/A   Clear
3:11 PM -0.4 °F -18.4 °F -9.4 °F 66% 30.29 in 10.0 mi NW 12.7 mph 18.4 mph N/A   Clear
3:31 PM 1.4 °F -16.1 °F -9.4 °F 61% 30.30 in 10.0 mi WNW 12.7 mph 18.4 mph N/A   Clear
3:51 PM -0.4 °F -18.4 °F -9.4 °F 66% 30.29 in 10.0 mi WNW 12.7 mph - N/A   Clear
4:11 PM 1.4 °F -16.1 °F -9.4 °F 61% 30.28 in 10.0 mi WNW 12.7 mph - N/A   Clear
4:31 PM -0.4 °F -16.7 °F -7.6 °F 72% 30.28 in 10.0 mi WNW 10.4 mph - N/A   Clear
4:51 PM -0.4 °F -16.7 °F -9.4 °F 66% 30.28 in 10.0 mi West 10.4 mph - N/A   Clear
5:10 PM -0.4 °F -14.7 °F -9.4 °F 66% 30.28 in 10.0 mi WNW 8.1 mph - N/A   Clear
5:31 PM -4.0 °F -17.8 °F -9.4 °F 78% 30.28 in 10.0 mi West 6.9 mph - N/A   Clear
5:51 PM -4.0 °F -14.6 °F -11.2 °F 71% 30.28 in 10.0 mi West 4.6 mph - N/A   Clear
6:11 PM -4.0 °F -12.4 °F -11.2 °F 71% 30.28 in 10.0 mi West 3.5 mph - N/A   Clear
6:51 PM -4.0 °F -12.4 °F -11.2 °F 71% 30.28 in 10.0 mi West 3.5 mph - N/A   Clear
7:11 PM -2.2 °F -14.2 °F -9.4 °F 71% 30.28 in 10.0 mi West 5.8 mph - N/A   Clear
7:30 PM -2.2 °F -16.8 °F -9.4 °F 71% 30.28 in 10.0 mi West 8.1 mph - N/A   Clear
7:51 PM -4.0 °F -16.3 °F -11.2 °F 71% 30.28 in 10.0 mi West 5.8 mph - N/A   Clear
8:11 PM -4.0 °F -16.3 °F -11.2 °F 71% 30.28 in 10.0 mi West 5.8 mph - N/A   Clear
8:31 PM -4.0 °F -17.8 °F -11.2 °F 71% 30.28 in 10.0 mi West 6.9 mph - N/A   Clear
8:50 PM -4.0 °F -19.0 °F -11.2 °F 71% 30.28 in 10.0 mi West 8.1 mph - N/A   Clear
9:11 PM -4.0 °F -20.2 °F -11.2 °F 71% 30.28 in 10.0 mi West 9.2 mph - N/A   Clear
9:30 PM -4.0 °F -19.0 °F -11.2 °F 71% 30.28 in 10.0 mi West 8.1 mph - N/A   Clear
9:51 PM -4.0 °F -17.8 °F -11.2 °F 71% 30.28 in 10.0 mi WNW 6.9 mph - N/A   Clear
10:10 PM -2.2 °F -16.8 °F -9.4 °F 71% 30.29 in 10.0 mi WNW 8.1 mph - N/A   Clear
10:30 PM -4.0 °F -16.3 °F -11.2 °F 71% 30.29 in 10.0 mi WNW 5.8 mph - N/A   Clear
10:51 PM -7.6 °F -18.8 °F -14.8 °F 71% 30.29 in 10.0 mi WNW 4.6 mph - N/A   Clear
11:11 PM -7.6 °F -20.6 °F -13.0 °F 77% 30.30 in 10.0 mi NW 5.8 mph - N/A   Clear
11:31 PM -7.6 °F -22.1 °F -13.0 °F 77% 30.30 in 10.0 mi WNW 6.9 mph - N/A   Clear
11:51 PM -7.6 °F -20.6 °F -13.0 °F 77% 30.30 in 10.0 mi WNW 5.8 mph - N/A   Clear